[[{"header":{"parameterUnit":"m.s-1","parameterCategory":1,"la1":30.2991,"la2":30.254,"lo1":-89.0895,"lo2":-89.0444,"dx":0.0017,"dy":0.0017,"nx":28,"ny":28,"refTime":"2023-01-21T15:00:00:Z","depth":0,"parameterNumber":2,"parameterNumberName":"U-component_of_WINDS"},"data":[0,0,0,0,0,0,0,0,0,0,0,0,0,0,0,0,0,0,0,0,0,0,0,0,0,0,0,0,0,0,0,0,0,0,0,0,0,0,0,0,0,0,0,0,0,0,0,0,0,0,0,0,0,0,0,0,0,0,4.4311,4.4311,0,4.4309,4.4309,4.4309,4.4224,4.4222,4.4219,4.4217,4.4214,4.4216,4.4218,0,0,0,0,0,0,0,0,0,0,0,0,0,4.4242,4.4243,4.4311,4.4311,4.4311,4.4309,4.4309,4.4309,4.4224,4.4222,4.4219,4.4216,4.4214,4.4216,4.4218,0,0,0,0,0,0,0,0,0,0,0,0,0,4.4259,4.4244,4.4311,4.4269,4.4265,4.4309,4.4309,4.4309,4.4225,4.4222,4.4218,4.4215,4.4213,4.4216,4.4219,4.4303,0,0,4.4228,4.4229,0,0,0,0,0,0,0,0,4.4258,4.4261,4.4275,4.4272,4.4267,4.4263,4.4283,4.4307,4.4226,4.424,4.4217,4.4214,4.4233,4.4234,4.4241,4.4303,4.4303,4.4228,4.423,4.4231,4.4232,0,0,0,0,0,0,0,4.4257,4.4261,4.431,4.4275,4.4271,4.425,4.4248,4.4287,4.4255,4.4238,4.4232,4.4233,4.4231,4.4239,4.424,4.4303,4.4228,4.4231,4.4232,4.4234,4.4434,4.4438,0,0,0,0,0,0,4.4262,4.4261,4.431,4.431,4.4254,4.4253,4.4252,4.4268,4.4254,4.4249,4.4236,4.4229,4.4235,4.4237,4.424,4.4338,4.4231,4.4234,4.4236,4.4431,4.4435,4.4439,0,0,0,0,0,0,4.426,4.4267,4.431,4.4284,4.4288,4.4258,4.4277,4.427,4.4277,4.4253,4.4246,4.425,4.4233,4.4236,4.4288,4.4337,4.4235,4.4238,4.4427,4.4432,4.4437,4.4535,0,0,0,0,0,0,4.4259,4.4267,4.4299,4.4285,4.4289,4.4359,4.428,4.4272,4.4283,4.4274,4.4264,4.4259,4.423,4.4284,4.4291,4.4339,4.424,4.4422,4.4429,4.4435,4.4527,4.4543,4.4556,0,0,0,0,0,4.4257,4.4326,4.4301,4.4307,4.4328,4.4362,4.4364,4.4329,4.4287,4.4319,4.4303,4.426,4.4331,4.429,4.4297,4.4347,4.4419,4.4427,4.4435,4.4521,4.454,4.4556,0,0,0,0,0,0,4.4345,4.4323,4.4295,4.4362,4.4364,4.4347,4.4386,4.4351,4.4365,4.4356,4.4312,4.4311,4.437,4.4364,4.4319,4.4428,4.4367,4.4377,4.443,4.4448,4.4462,4.4462,4.4243,0,0,0,0,0,4.4372,4.4401,4.4381,4.4442,4.4444,4.4416,4.4429,4.4402,4.4402,4.4403,4.4391,4.4393,4.4416,4.4432,4.4451,4.4526,4.4523,4.4564,4.4579,4.4591,4.4599,4.4639,4.4657,4.4465,4.4465,4.4465,0,0,4.4428,4.442,4.4441,4.4459,4.4458,4.4489,4.4417,4.4452,4.4475,4.4408,4.4457,4.4449,4.4448,4.4513,4.454,4.4509,4.4652,4.4601,4.4611,4.4613,4.4649,4.4667,4.4684,4.4471,4.447,4.4469,0,0,4.4547,4.4544,4.4595,4.4596,4.4595,4.4576,4.4588,4.4577,4.4569,4.4617,4.4568,4.4595,4.4635,4.4637,4.4643,4.4765,4.4725,4.4772,4.4848,4.4888,4.4903,4.4916,4.4959,4.4975,4.4781,4.4782,4.4782,0,4.4617,4.4662,4.4625,4.4665,4.4674,4.4616,4.4667,4.467,4.4676,4.4684,4.4649,4.4699,4.4694,4.4759,4.4789,4.4796,4.4808,4.4773,4.4904,4.4916,4.4928,4.4969,4.4985,4.4787,4.4787,4.4786,4.4786,0,4.4748,4.4781,4.4822,4.483,4.4844,4.4889,4.4859,4.4878,4.4851,4.4835,4.4886,4.4879,4.4896,4.491,4.4883,4.4971,4.4952,4.4911,4.4849,4.4953,4.499,4.5006,4.4796,4.4793,4.4792,4.479,0,0,4.492,4.4909,4.4925,4.4928,4.4924,4.4948,4.4992,4.5009,4.5027,4.5033,4.5068,4.5104,4.5067,4.5074,4.5048,4.5082,4.518,4.5037,4.5037,4.5064,4.5276,4.5306,4.5325,4.5154,4.5157,4.5159,4.5276,0,4.5035,4.5108,4.5077,4.5153,4.5182,4.5129,4.5166,4.5168,4.5155,4.5179,4.5164,4.519,4.5139,4.5143,4.5176,4.5161,4.5222,4.5152,4.5186,4.5188,4.5187,4.5344,4.5376,4.5486,4.529,4.5293,4.5295,0,4.5178,4.5192,4.5271,4.5263,4.5274,4.5309,4.5323,4.5346,4.5347,4.5335,4.5345,4.5311,4.5353,4.5292,4.5349,4.5303,4.5315,4.531,4.5313,4.5314,4.5247,4.5349,4.5521,4.5537,4.5318,4.5316,4.5314,0,4.5296,4.5334,4.5386,4.5391,4.5383,4.5409,4.5406,4.5405,4.5418,4.5431,4.5439,4.5456,4.5465,4.548,4.5451,4.541,4.5513,4.5449,4.5504,4.5505,4.5527,4.5526,4.5702,4.5536,4.5536,4.5536,4.5535,0,4.5427,4.5477,4.5439,4.5472,4.5527,4.5491,4.5547,4.5538,4.5538,4.5567,4.5522,4.5551,4.5512,4.5538,4.5516,4.5567,4.5571,4.5563,4.5556,4.5566,4.5568,4.5573,4.5564,4.554,4.5539,4.5538,4.5538,0,4.5567,4.5543,4.5597,4.5586,4.5584,4.5626,4.5616,4.5645,4.563,4.5668,4.5675,4.5651,4.5679,4.5652,4.5678,4.5663,4.5731,4.5714,4.5731,4.5726,4.5781,4.5776,4.5967,4.599,4.581,4.5812,4.5813,0,4.5651,4.5689,4.5683,4.57,4.5701,4.5728,4.5742,4.5709,4.5725,4.573,4.5759,4.5783,4.58,4.5846,4.5831,4.5851,4.5833,4.5899,4.5836,4.5845,4.5834,4.5832,4.5835,4.5911,4.5913,4.5915,4.5916,0,4.5804,4.5791,4.5812,4.5831,4.5848,4.5861,4.587,4.5886,4.5852,4.5872,4.59,4.5914,4.5941,4.5965,4.598,4.5978,4.5942,4.5937,4.595,4.596,4.5969,4.5965,4.5765,4.5932,4.593,4.5929,4.5928,4.5928,4.5918,4.595,4.5951,4.5976,4.598,4.599,4.6017,4.6006,4.6029,4.6048,4.6027,4.6062,4.6063,4.608,4.6082,4.6108,4.6081,4.61,4.6105,4.611,4.6118,4.5966,4.6111,4.611,4.611,4.611,4.6109,0,4.6068,4.6067,4.6091,4.6105,4.6126,4.6092,4.61,4.6119,4.615,4.6155,4.6173,4.6206,4.623,4.6217,4.6237,4.6261,4.6245,4.6267,4.6265,4.6265,4.6142,4.6128,4.628,4.628,4.628,4.628,4.628,4.628,4.6149,4.62,4.6188,4.6241,4.6239,4.6272,4.628,4.6289,4.6293,4.6331,4.6351,4.6343,4.6341,4.6361,4.6382,4.6377,4.6387,4.6415,4.6405,4.629,4.6273,4.6257,4.6244,4.6418,4.6418,4.6525,4.6526,4.6527]},{"header":{"parameterUnit":"m.s-1","parameterCategory":1,"la1":30.2991,"la2":30.254,"lo1":-89.0895,"lo2":-89.0444,"dx":0.0017,"dy":0.0017,"nx":28,"ny":28,"refTime":"2023-01-21T15:00:00:Z","depth":0,"parameterNumber":3,"parameterNumberName":"V-component_of_WINDS"},"data":[0,0,0,0,0,0,0,0,0,0,0,0,0,0,0,0,0,0,0,0,0,0,0,0,0,0,0,0,0,0,0,0,0,0,0,0,0,0,0,0,0,0,0,0,0,0,0,0,0,0,0,0,0,0,0,0,0,0,-4.2339,-4.234,0,-4.2469,-4.2471,-4.2472,-4.2459,-4.2457,-4.2455,-4.2453,-4.2583,-4.2588,-4.2593,0,0,0,0,0,0,0,0,0,0,0,0,0,-4.2075,-4.208,-4.2339,-4.234,-4.2342,-4.2469,-4.2471,-4.2473,-4.246,-4.2457,-4.2455,-4.2453,-4.2581,-4.2588,-4.2594,0,0,0,0,0,0,0,0,0,0,0,0,0,-4.2196,-4.2081,-4.2339,-4.2351,-4.2354,-4.2469,-4.2471,-4.2473,-4.246,-4.2457,-4.2454,-4.2451,-4.2579,-4.2587,-4.2595,-4.2705,0,0,-4.2619,-4.2623,0,0,0,0,0,0,0,0,-4.2189,-4.2205,-4.2348,-4.235,-4.2353,-4.2445,-4.2425,-4.2551,-4.2461,-4.242,-4.2453,-4.245,-4.2539,-4.255,-4.2581,-4.2711,-4.2716,-4.262,-4.2625,-4.2628,-4.2631,0,0,0,0,0,0,0,-4.2181,-4.22,-4.239,-4.235,-4.2353,-4.2349,-4.2363,-4.2449,-4.2495,-4.2423,-4.2422,-4.2438,-4.254,-4.2574,-4.2584,-4.2718,-4.262,-4.2627,-4.2632,-4.2635,-4.2944,-4.2947,0,0,0,0,0,0,-4.217,-4.2193,-4.2386,-4.2394,-4.2262,-4.2356,-4.2372,-4.2419,-4.2494,-4.2502,-4.2441,-4.2437,-4.2562,-4.2575,-4.2589,-4.2722,-4.2628,-4.2636,-4.264,-4.294,-4.2945,-4.2948,0,0,0,0,0,0,-4.2164,-4.2187,-4.2381,-4.2294,-4.2318,-4.2364,-4.2417,-4.2423,-4.2456,-4.2507,-4.2515,-4.2467,-4.256,-4.2578,-4.2676,-4.2726,-4.2639,-4.2647,-4.2936,-4.2942,-4.2946,-4.299,0,0,0,0,0,0,-4.2157,-4.2185,-4.2228,-4.2295,-4.2323,-4.2468,-4.242,-4.2428,-4.2471,-4.2467,-4.2534,-4.2542,-4.2559,-4.2664,-4.2684,-4.2736,-4.2653,-4.2932,-4.2939,-4.2945,-4.2984,-4.2996,-4.3006,0,0,0,0,0,-4.2147,-4.2235,-4.2231,-4.2254,-4.2378,-4.247,-4.2486,-4.2505,-4.2475,-4.2518,-4.2551,-4.254,-4.2718,-4.2675,-4.2697,-4.2752,-4.2929,-4.2937,-4.2944,-4.2979,-4.2994,-4.3006,0,0,0,0,0,0,-4.2172,-4.2244,-4.224,-4.2352,-4.2405,-4.2468,-4.2523,-4.252,-4.2582,-4.2576,-4.2596,-4.2611,-4.271,-4.2741,-4.2691,-4.2862,-4.2819,-4.2832,-4.2838,-4.2852,-4.2863,-4.2853,-4.2659,0,0,0,0,0,-4.219,-4.2261,-4.2319,-4.2412,-4.2439,-4.2477,-4.2518,-4.2528,-4.2584,-4.2606,-4.2646,-4.2699,-4.2767,-4.2811,-4.2877,-4.2989,-4.3002,-4.3037,-4.3048,-4.3057,-4.3067,-4.3128,-4.3144,-4.2973,-4.2973,-4.2973,0,0,-4.2229,-4.2277,-4.232,-4.2418,-4.2461,-4.2532,-4.2496,-4.2573,-4.2626,-4.2617,-4.2713,-4.2744,-4.2805,-4.2911,-4.2959,-4.2939,-4.3117,-4.3066,-4.3073,-4.3079,-4.3137,-4.3153,-4.3168,-4.2979,-4.2978,-4.2977,0,0,-4.2336,-4.238,-4.2462,-4.2506,-4.2571,-4.2596,-4.2615,-4.2679,-4.27,-4.2797,-4.2792,-4.2854,-4.2971,-4.3014,-4.3052,-4.3175,-4.3167,-4.3196,-4.3252,-4.3311,-4.3325,-4.3337,-4.338,-4.3396,-4.3206,-4.3206,-4.3206,0,-4.2376,-4.2484,-4.2504,-4.2583,-4.2625,-4.2622,-4.2705,-4.2746,-4.2829,-4.2858,-4.2835,-4.2982,-4.3022,-4.3138,-4.3168,-4.3199,-4.3221,-4.3188,-4.3322,-4.3334,-4.3345,-4.3387,-4.3403,-4.3209,-4.3209,-4.3209,-4.3208,0,-4.2529,-4.2605,-4.2663,-4.2745,-4.2794,-4.2874,-4.2905,-4.2952,-4.2958,-4.2984,-4.3082,-4.3131,-4.3206,-4.3234,-4.324,-4.3351,-4.3336,-4.3317,-4.3275,-4.3364,-4.3403,-4.3419,-4.3214,-4.3213,-4.3212,-4.3211,0,0,-4.2655,-4.2747,-4.2768,-4.2805,-4.2877,-4.2935,-4.3014,-4.3089,-4.3129,-4.3186,-4.3253,-4.3352,-4.3335,-4.3377,-4.3388,-4.344,-4.3534,-4.3414,-4.3416,-4.3434,-4.3657,-4.3671,-4.3689,-4.3529,-4.3532,-4.3535,-4.3652,0,-4.2769,-4.2911,-4.2931,-4.3056,-4.3125,-4.3123,-4.3192,-4.3243,-4.327,-4.3331,-4.336,-4.343,-4.3402,-4.3428,-4.3479,-4.3511,-4.3578,-4.3503,-4.3589,-4.3592,-4.3574,-4.371,-4.3724,-4.3833,-4.3668,-4.367,-4.3672,0,-4.292,-4.2983,-4.3115,-4.3178,-4.3208,-4.3269,-4.3339,-4.3399,-4.3456,-4.3472,-4.352,-4.3524,-4.3605,-4.3559,-4.367,-4.3618,-4.3655,-4.3676,-4.368,-4.3689,-4.3637,-4.3721,-4.3868,-4.3884,-4.3697,-4.3695,-4.3693,0,-4.2998,-4.3115,-4.3209,-4.3241,-4.3317,-4.336,-4.3393,-4.3448,-4.3492,-4.3552,-4.358,-4.3649,-4.3687,-4.3739,-4.3761,-4.3727,-4.3871,-4.3827,-4.3885,-4.3884,-4.3915,-4.3912,-4.4069,-4.3939,-4.3939,-4.3939,-4.3938,0,-4.3122,-4.3203,-4.3245,-4.3303,-4.3393,-4.3415,-4.3503,-4.3535,-4.3583,-4.3646,-4.3648,-4.3707,-4.3733,-4.3796,-4.3813,-4.3902,-4.3919,-4.3933,-4.3936,-4.3933,-4.3931,-4.3956,-4.3949,-4.3943,-4.3942,-4.3941,-4.3941,0,-4.3224,-4.3256,-4.3358,-4.3422,-4.3439,-4.3503,-4.3557,-4.3612,-4.3638,-4.3718,-4.3738,-4.3779,-4.3852,-4.388,-4.3969,-4.3981,-4.4083,-4.4081,-4.4064,-4.4065,-4.4121,-4.4115,-4.4299,-4.4324,-4.4178,-4.4179,-4.4181,0,-4.3301,-4.3363,-4.3434,-4.3477,-4.3512,-4.3581,-4.3626,-4.365,-4.3696,-4.3766,-4.3813,-4.3887,-4.3947,-4.4064,-4.4101,-4.4169,-4.4168,-4.4228,-4.4178,-4.4172,-4.4168,-4.4164,-4.417,-4.4236,-4.4238,-4.4239,-4.424,0,-4.3434,-4.3447,-4.3512,-4.3583,-4.3637,-4.3694,-4.3748,-4.3783,-4.3815,-4.3867,-4.3943,-4.399,-4.4082,-4.4154,-4.4224,-4.4257,-4.4254,-4.4256,-4.4272,-4.4269,-4.4256,-4.4263,-4.4089,-4.4251,-4.425,-4.4249,-4.4249,-4.4248,-4.3525,-4.358,-4.3639,-4.3711,-4.3755,-4.3807,-4.3862,-4.3896,-4.396,-4.4038,-4.4048,-4.4129,-4.4184,-4.4278,-4.4314,-4.4377,-4.4361,-4.4385,-4.4391,-4.4397,-4.44,-4.4247,-4.439,-4.4389,-4.4389,-4.4389,-4.4389,0,-4.3658,-4.3696,-4.3762,-4.384,-4.3897,-4.389,-4.3951,-4.3998,-4.407,-4.4123,-4.4183,-4.4269,-4.434,-4.4383,-4.4453,-4.4495,-4.4496,-4.4513,-4.451,-4.4517,-4.4411,-4.4389,-4.4511,-4.4511,-4.4511,-4.4511,-4.4511,-4.4511,-4.3733,-4.3826,-4.3846,-4.396,-4.3997,-4.4078,-4.4113,-4.416,-4.4202,-4.43,-4.4359,-4.4387,-4.4435,-4.4509,-4.4573,-4.4584,-4.4609,-4.4628,-4.4637,-4.4537,-4.4524,-4.4512,-4.4492,-4.4634,-4.4634,-4.4738,-4.4739,-4.4739]}]]